Time,TemperatureF,DewpointF,PressureIn,WindDirection,WindDirectionDegrees,WindSpeedMPH,WindSpeedGustMPH,Humidity,HourlyPrecipIn,Conditions,Clouds,dailyrainin,SoftwareType,DateUTC
2013-04-14 00:01:00,46.0,45.0,-100.00,East,87,3.0,7.0,97,-99.99,,,-99.99,,2013-04-14 07:01:00,
2013-04-14 00:11:00,46.0,45.0,-100.00,ENE,68,4.0,5.0,97,-99.99,,,-99.99,,2013-04-14 07:11:00,
2013-04-14 00:22:00,46.0,45.0,-100.00,East,93,4.0,8.0,98,-99.99,,,-99.99,,2013-04-14 07:22:00,
2013-04-14 00:32:00,46.0,45.0,-100.00,East,96,5.0,8.0,98,-99.99,,,-99.99,,2013-04-14 07:32:00,
2013-04-14 00:42:00,46.0,45.0,-100.00,SE,129,5.0,6.0,98,-99.99,,,-99.99,,2013-04-14 07:42:00,
2013-04-14 00:52:00,46.0,45.0,-100.00,SSE,149,3.0,6.0,98,-99.99,,,-99.99,,2013-04-14 07:52:00,
2013-04-14 01:01:00,46.0,45.0,-100.00,SSE,149,3.0,6.0,98,-99.99,,,-99.99,,2013-04-14 08:01:00,
2013-04-14 01:12:00,46.0,45.0,-100.00,East,99,2.0,3.0,98,-99.99,,,-99.99,,2013-04-14 08:12:00,
2013-04-14 01:22:00,45.0,44.0,-100.00,ENE,75,1.0,5.0,98,-99.99,,,-99.99,,2013-04-14 08:22:00,
2013-04-14 01:32:00,45.0,44.0,-100.00,East,92,3.0,7.0,98,-99.99,,,-99.99,,2013-04-14 08:32:00,
2013-04-14 01:42:00,46.0,45.0,-100.00,East,87,4.0,8.0,98,-99.99,,,-99.99,,2013-04-14 08:42:00,
2013-04-14 01:52:00,46.0,45.0,-100.00,ENE,62,4.0,8.0,98,-99.99,,,-99.99,,2013-04-14 08:52:00,
2013-04-14 02:02:00,46.0,45.0,-100.00,ENE,69,4.0,5.0,98,-99.99,,,-99.99,,2013-04-14 09:02:00,
2013-04-14 02:12:00,47.0,47.0,-100.00,SE,128,2.0,9.0,99,-99.99,,,-99.99,,2013-04-14 09:12:00,
2013-04-14 02:22:00,47.0,47.0,-100.00,ESE,119,3.0,7.0,99,-99.99,,,-99.99,,2013-04-14 09:22:00,
2013-04-14 02:32:00,47.0,46.0,-100.00,East,82,3.0,5.0,98,-99.99,,,-99.99,,2013-04-14 09:32:00,
2013-04-14 02:42:00,46.0,46.0,-100.00,ESE,103,3.0,5.0,99,-99.99,,,-99.99,,2013-04-14 09:42:00,
2013-04-14 02:53:00,46.0,46.0,-100.00,ESE,119,2.0,8.0,99,-99.99,,,-99.99,,2013-04-14 09:53:00,
2013-04-14 03:02:00,46.0,46.0,-100.00,SE,124,3.0,7.0,99,-99.99,,,-99.99,,2013-04-14 10:02:00,
2013-04-14 03:12:00,46.0,46.0,-100.00,SE,124,3.0,9.0,99,-99.99,,,-99.99,,2013-04-14 10:12:00,
2013-04-14 03:22:00,45.0,45.0,-100.00,ESE,110,4.0,8.0,99,-99.99,,,-99.99,,2013-04-14 10:22:00,
2013-04-14 03:32:00,45.0,45.0,-100.00,ESE,107,4.0,8.0,99,-99.99,,,-99.99,,2013-04-14 10:32:00,
2013-04-14 03:42:00,45.0,45.0,-100.00,SE,142,3.0,6.0,99,-99.99,,,-99.99,,2013-04-14 10:42:00,
2013-04-14 03:52:00,45.0,45.0,-100.00,SSE,150,3.0,6.0,99,-99.99,,,-99.99,,2013-04-14 10:52:00,
2013-04-14 04:02:00,45.0,45.0,-100.00,ESE,121,3.0,5.0,99,-99.99,,,-99.99,,2013-04-14 11:02:00,
2013-04-14 04:12:00,45.0,45.0,-100.00,ESE,102,2.0,5.0,99,-99.99,,,-99.99,,2013-04-14 11:12:00,
2013-04-14 04:22:00,45.0,45.0,-100.00,ESE,105,2.0,4.0,99,-99.99,,,-99.99,,2013-04-14 11:22:00,
2013-04-14 04:42:00,44.0,44.0,-100.00,ESE,114,3.0,5.0,99,-99.99,,,-99.99,,2013-04-14 11:42:00,
2013-04-14 04:52:00,44.0,44.0,-100.00,SE,130,2.0,5.0,99,-99.99,,,-99.99,,2013-04-14 11:52:00,
2013-04-14 05:02:00,44.0,44.0,-100.00,ESE,109,2.0,6.0,99,-99.99,,,-99.99,,2013-04-14 12:02:00,
2013-04-14 05:12:00,44.0,44.0,-100.00,East,92,2.0,5.0,99,-99.99,,,-99.99,,2013-04-14 12:12:00,
2013-04-14 05:21:00,44.0,44.0,-100.00,NE,44,3.0,4.0,99,-99.99,,,-99.99,,2013-04-14 12:21:00,
2013-04-14 05:32:00,44.0,44.0,-100.00,East,93,2.0,3.0,99,-99.99,,,-99.99,,2013-04-14 12:32:00,
2013-04-14 05:42:00,44.0,44.0,-100.00,SSE,155,1.0,4.0,99,-99.99,,,-99.99,,2013-04-14 12:42:00,
2013-04-14 05:51:00,44.0,44.0,-100.00,SSE,149,2.0,3.0,99,-99.99,,,-99.99,,2013-04-14 12:51:00,
2013-04-14 06:02:00,44.0,44.0,-100.00,SSE,153,1.0,5.0,99,-99.99,,,-99.99,,2013-04-14 13:02:00,
2013-04-14 06:12:00,44.0,44.0,-100.00,SE,141,2.0,3.0,99,-99.99,,,-99.99,,2013-04-14 13:12:00,
2013-04-14 06:22:00,44.0,44.0,-100.00,ESE,116,1.0,3.0,99,-99.99,,,-99.99,,2013-04-14 13:22:00,
2013-04-14 06:32:00,44.0,44.0,-100.00,East,96,1.0,4.0,99,-99.99,,,-99.99,,2013-04-14 13:32:00,
2013-04-14 06:42:00,44.0,43.0,-100.00,East,85,2.0,4.0,98,-99.99,,,-99.99,,2013-04-14 13:42:00,
2013-04-14 06:52:00,43.0,42.0,-100.00,ESE,104,3.0,4.0,98,-99.99,,,-99.99,,2013-04-14 13:52:00,
2013-04-14 07:02:00,43.0,42.0,-100.00,East,91,2.0,4.0,98,-99.99,,,-99.99,,2013-04-14 14:02:00,
2013-04-14 07:12:00,43.0,42.0,-100.00,ENE,63,2.0,3.0,98,-99.99,,,-99.99,,2013-04-14 14:12:00,
2013-04-14 07:22:00,43.0,42.0,-100.00,SW,231,1.0,2.0,97,-99.99,,,-99.99,,2013-04-14 14:22:00,
2013-04-14 07:32:00,44.0,43.0,-100.00,NE,41,1.0,2.0,97,-99.99,,,-99.99,,2013-04-14 14:32:00,
2013-04-14 07:42:00,44.0,43.0,-100.00,ENE,62,1.0,2.0,96,-99.99,,,-99.99,,2013-04-14 14:42:00,
2013-04-14 07:52:00,45.0,44.0,-100.00,SSE,161,1.0,5.0,96,-99.99,,,-99.99,,2013-04-14 14:52:00,
2013-04-14 08:02:00,45.0,44.0,-100.00,SE,129,2.0,8.0,95,-99.99,,,-99.99,,2013-04-14 15:02:00,
2013-04-14 08:12:00,46.0,44.0,-100.00,SSE,151,3.0,7.0,92,-99.99,,,-99.99,,2013-04-14 15:12:00,
2013-04-14 08:22:00,46.0,44.0,-100.00,SE,137,3.0,6.0,91,-99.99,,,-99.99,,2013-04-14 15:22:00,
2013-04-14 08:33:00,46.0,43.0,-100.00,South,176,2.0,4.0,89,-99.99,,,-99.99,,2013-04-14 15:33:00,
2013-04-14 08:43:00,48.0,44.0,-100.00,South,189,2.0,6.0,85,-99.99,,,-99.99,,2013-04-14 15:43:00,
2013-04-14 08:52:00,48.0,43.0,-100.00,SSW,203,3.0,7.0,84,-99.99,,,-99.99,,2013-04-14 15:52:00,
2013-04-14 09:03:00,48.0,43.0,-100.00,SSW,207,3.0,7.0,83,-99.99,,,-99.99,,2013-04-14 16:03:00,
2013-04-14 09:13:00,49.0,44.0,-100.00,SSW,203,4.0,7.0,82,-99.99,,,-99.99,,2013-04-14 16:13:00,
2013-04-14 09:22:00,49.0,43.0,-100.00,SSW,195,4.0,6.0,81,-99.99,,,-99.99,,2013-04-14 16:22:00,
2013-04-14 09:32:00,50.0,44.0,-100.00,SSW,207,4.0,9.0,79,-99.99,,,-99.99,,2013-04-14 16:32:00,
2013-04-14 09:43:00,50.0,43.0,-100.00,SW,224,4.0,8.0,78,-99.99,,,-99.99,,2013-04-14 16:43:00,
2013-04-14 09:52:00,52.0,44.0,-100.00,South,176,4.0,7.0,74,-99.99,,,-99.99,,2013-04-14 16:52:00,
2013-04-14 10:02:00,52.0,44.0,-100.00,SSW,200,3.0,7.0,73,-99.99,,,-99.99,,2013-04-14 17:02:00,
2013-04-14 10:12:00,52.0,43.0,-100.00,SSW,206,4.0,8.0,72,-99.99,,,-99.99,,2013-04-14 17:12:00,
2013-04-14 10:22:00,53.0,43.0,-100.00,South,186,5.0,9.0,70,-99.99,,,-99.99,,2013-04-14 17:22:00,
2013-04-14 10:32:00,54.0,43.0,-100.00,SSW,208,4.0,9.0,67,-99.99,,,-99.99,,2013-04-14 17:32:00,
2013-04-14 10:42:00,54.0,43.0,-100.00,SSW,194,5.0,9.0,66,-99.99,,,-99.99,,2013-04-14 17:42:00,
2013-04-14 10:52:00,54.0,43.0,-100.00,South,174,4.0,7.0,65,-99.99,,,-99.99,,2013-04-14 17:52:00,
2013-04-14 11:02:00,55.0,44.0,-100.00,SW,218,4.0,11.0,67,-99.99,,,-99.99,,2013-04-14 18:02:00,
2013-04-14 11:12:00,55.0,46.0,-100.00,West,262,5.0,11.0,71,-99.99,,,-99.99,,2013-04-14 18:12:00,
2013-04-14 11:22:00,55.0,45.0,-100.00,WSW,238,6.0,12.0,70,-99.99,,,-99.99,,2013-04-14 18:22:00,
2013-04-14 11:32:00,55.0,46.0,-100.00,West,264,7.0,12.0,71,-99.99,,,-99.99,,2013-04-14 18:32:00,
2013-04-14 11:42:00,55.0,46.0,-100.00,WSW,253,6.0,13.0,72,-99.99,,,-99.99,,2013-04-14 18:42:00,
2013-04-14 11:52:00,55.0,46.0,-100.00,West,265,7.0,13.0,72,-99.99,,,-99.99,,2013-04-14 18:52:00,
2013-04-14 12:02:00,54.0,46.0,-100.00,WNW,283,6.0,12.0,73,-99.99,,,-99.99,,2013-04-14 19:02:00,
2013-04-14 12:12:00,54.0,45.0,-100.00,West,272,6.0,12.0,72,-99.99,,,-99.99,,2013-04-14 19:12:00,
2013-04-14 12:22:00,55.0,46.0,-100.00,WSW,248,6.0,14.0,71,-99.99,,,-99.99,,2013-04-14 19:22:00,
2013-04-14 12:32:00,55.0,46.0,-100.00,WSW,253,8.0,13.0,71,-99.99,,,-99.99,,2013-04-14 19:32:00,
2013-04-14 12:42:00,55.0,46.0,-100.00,WSW,253,8.0,12.0,71,-99.99,,,-99.99,,2013-04-14 19:42:00,
2013-04-14 12:52:00,55.0,46.0,-100.00,WSW,252,7.0,14.0,71,-99.99,,,-99.99,,2013-04-14 19:52:00,
2013-04-14 13:02:00,55.0,46.0,-100.00,WSW,246,8.0,11.0,71,-99.99,,,-99.99,,2013-04-14 20:02:00,
2013-04-14 13:12:00,54.0,45.0,-100.00,WSW,249,6.0,14.0,72,-99.99,,,-99.99,,2013-04-14 20:12:00,
2013-04-14 13:21:00,55.0,46.0,-100.00,WSW,255,8.0,12.0,71,-99.99,,,-99.99,,2013-04-14 20:21:00,
2013-04-14 13:32:00,55.0,46.0,-100.00,WSW,250,6.0,12.0,71,-99.99,,,-99.99,,2013-04-14 20:32:00,
2013-04-14 13:42:00,56.0,47.0,-100.00,West,263,7.0,15.0,71,-99.99,,,-99.99,,2013-04-14 20:42:00,
2013-04-14 13:52:00,55.0,46.0,-100.00,WSW,255,7.0,13.0,71,-99.99,,,-99.99,,2013-04-14 20:52:00,
2013-04-14 14:02:00,55.0,46.0,-100.00,WSW,250,7.0,17.0,71,-99.99,,,-99.99,,2013-04-14 21:02:00,
2013-04-14 14:12:00,55.0,46.0,-100.00,West,263,8.0,14.0,72,-99.99,,,-99.99,,2013-04-14 21:12:00,
2013-04-14 14:22:00,55.0,46.0,-100.00,West,272,7.0,12.0,72,-99.99,,,-99.99,,2013-04-14 21:22:00,
2013-04-14 14:32:00,55.0,46.0,-100.00,WSW,254,7.0,12.0,72,-99.99,,,-99.99,,2013-04-14 21:32:00,
2013-04-14 14:43:00,56.0,46.0,-100.00,West,262,7.0,12.0,70,-99.99,,,-99.99,,2013-04-14 21:43:00,
2013-04-14 14:53:00,56.0,46.0,-100.00,WSW,247,7.0,13.0,70,-99.99,,,-99.99,,2013-04-14 21:53:00,
2013-04-14 15:02:00,56.0,46.0,-100.00,WSW,243,7.0,15.0,69,-99.99,,,-99.99,,2013-04-14 22:02:00,
2013-04-14 15:12:00,55.0,45.0,-100.00,West,259,8.0,15.0,70,-99.99,,,-99.99,,2013-04-14 22:12:00,
2013-04-14 15:22:00,56.0,46.0,-100.00,WSW,250,7.0,15.0,70,-99.99,,,-99.99,,2013-04-14 22:22:00,
2013-04-14 15:32:00,57.0,47.0,-100.00,WSW,256,8.0,14.0,69,-99.99,,,-99.99,,2013-04-14 22:32:00,
2013-04-14 15:43:00,56.0,46.0,-100.00,West,274,8.0,15.0,70,-99.99,,,-99.99,,2013-04-14 22:43:00,
2013-04-14 15:52:00,54.0,46.0,-100.00,WNW,282,8.0,14.0,75,-99.99,,,-99.99,,2013-04-14 22:52:00,
2013-04-14 16:02:00,52.0,46.0,-100.00,West,281,9.0,13.0,80,-99.99,,,-99.99,,2013-04-14 23:02:00,
2013-04-14 16:12:00,51.0,46.0,-100.00,West,277,8.0,12.0,83,-99.99,,,-99.99,,2013-04-14 23:12:00,
2013-04-14 16:22:00,51.0,47.0,-100.00,West,273,7.0,12.0,85,-99.99,,,-99.99,,2013-04-14 23:22:00,
2013-04-14 16:32:00,50.0,46.0,-100.00,WSW,257,7.0,10.0,87,-99.99,,,-99.99,,2013-04-14 23:32:00,
2013-04-14 16:42:00,49.0,46.0,-100.00,West,259,6.0,11.0,90,-99.99,,,-99.99,,2013-04-14 23:42:00,
2013-04-14 16:52:00,49.0,47.0,-100.00,West,271,7.0,10.0,92,-99.99,,,-99.99,,2013-04-14 23:52:00,
2013-04-14 17:01:00,49.0,47.0,-100.00,West,260,5.0,10.0,92,-99.99,,,-99.99,,2013-04-15 00:01:00,
2013-04-14 17:12:00,48.0,46.0,-100.00,WSW,254,5.0,8.0,93,-99.99,,,-99.99,,2013-04-15 00:12:00,
2013-04-14 17:22:00,48.0,46.0,-100.00,WSW,251,5.0,8.0,94,-99.99,,,-99.99,,2013-04-15 00:22:00,
2013-04-14 17:32:00,48.0,47.0,-100.00,West,267,5.0,8.0,95,-99.99,,,-99.99,,2013-04-15 00:32:00,
2013-04-14 17:42:00,48.0,47.0,-100.00,West,271,4.0,7.0,95,-99.99,,,-99.99,,2013-04-15 00:42:00,
2013-04-14 17:52:00,48.0,47.0,-100.00,WSW,256,3.0,6.0,95,-99.99,,,-99.99,,2013-04-15 00:52:00,
2013-04-14 18:02:00,48.0,47.0,-100.00,WNW,283,4.0,6.0,96,-99.99,,,-99.99,,2013-04-15 01:02:00,
2013-04-14 18:12:00,48.0,47.0,-100.00,WNW,293,2.0,5.0,96,-99.99,,,-99.99,,2013-04-15 01:12:00,
2013-04-14 18:22:00,48.0,47.0,-100.00,NW,316,3.0,4.0,96,-99.99,,,-99.99,,2013-04-15 01:22:00,
2013-04-14 18:32:00,48.0,47.0,-100.00,West,265,1.0,5.0,95,-99.99,,,-99.99,,2013-04-15 01:32:00,
2013-04-14 18:42:00,48.0,47.0,-100.00,West,278,3.0,5.0,95,-99.99,,,-99.99,,2013-04-15 01:42:00,
2013-04-14 18:52:00,48.0,47.0,-100.00,WSW,257,2.0,6.0,95,-99.99,,,-99.99,,2013-04-15 01:52:00,
2013-04-14 19:02:00,48.0,47.0,-100.00,West,269,4.0,6.0,95,-99.99,,,-99.99,,2013-04-15 02:02:00,
2013-04-14 19:12:00,48.0,47.0,-100.00,West,279,4.0,9.0,95,-99.99,,,-99.99,,2013-04-15 02:12:00,
2013-04-14 19:22:00,47.0,46.0,-100.00,West,278,5.0,9.0,96,-99.99,,,-99.99,,2013-04-15 02:22:00,
2013-04-14 19:32:00,47.0,46.0,-100.00,West,261,5.0,7.0,96,-99.99,,,-99.99,,2013-04-15 02:32:00,
2013-04-14 19:42:00,47.0,46.0,-100.00,WSW,258,4.0,8.0,97,-99.99,,,-99.99,,2013-04-15 02:42:00,
2013-04-14 19:52:00,47.0,46.0,-100.00,WSW,247,4.0,6.0,97,-99.99,,,-99.99,,2013-04-15 02:52:00,
2013-04-14 20:02:00,47.0,46.0,-100.00,West,270,3.0,6.0,98,-99.99,,,-99.99,,2013-04-15 03:02:00,
2013-04-14 20:12:00,47.0,46.0,-100.00,West,273,3.0,6.0,98,-99.99,,,-99.99,,2013-04-15 03:12:00,
2013-04-14 20:22:00,47.0,46.0,-100.00,WSW,255,3.0,6.0,98,-99.99,,,-99.99,,2013-04-15 03:22:00,
2013-04-14 20:32:00,47.0,46.0,-100.00,West,270,3.0,5.0,98,-99.99,,,-99.99,,2013-04-15 03:32:00,
2013-04-14 20:43:00,47.0,46.0,-100.00,WSW,245,3.0,5.0,98,-99.99,,,-99.99,,2013-04-15 03:43:00,
2013-04-14 20:53:00,47.0,46.0,-100.00,WSW,245,3.0,5.0,98,-99.99,,,-99.99,,2013-04-15 03:53:00,
2013-04-14 21:02:00,47.0,46.0,-100.00,WSW,245,3.0,5.0,98,-99.99,,,-99.99,,2013-04-15 04:02:00,
2013-04-14 21:12:00,47.0,46.0,-100.00,WSW,246,2.0,6.0,98,-99.99,,,-99.99,,2013-04-15 04:12:00,
2013-04-14 21:22:00,47.0,46.0,-100.00,WSW,247,3.0,5.0,98,-99.99,,,-99.99,,2013-04-15 04:22:00,
2013-04-14 21:33:00,46.0,45.0,-100.00,SW,228,3.0,4.0,98,-99.99,,,-99.99,,2013-04-15 04:33:00,
2013-04-14 21:42:00,46.0,46.0,-100.00,WSW,248,2.0,5.0,99,-99.99,,,-99.99,,2013-04-15 04:42:00,
2013-04-14 21:52:00,46.0,46.0,-100.00,WSW,258,3.0,5.0,99,-99.99,,,-99.99,,2013-04-15 04:52:00,
2013-04-14 22:02:00,46.0,46.0,-100.00,West,259,3.0,6.0,99,-99.99,,,-99.99,,2013-04-15 05:02:00,
2013-04-14 22:12:00,46.0,46.0,-100.00,WSW,258,3.0,6.0,99,-99.99,,,-99.99,,2013-04-15 05:12:00,
2013-04-14 22:22:00,46.0,46.0,-100.00,West,270,4.0,7.0,99,-99.99,,,-99.99,,2013-04-15 05:22:00,
2013-04-14 22:32:00,46.0,46.0,-100.00,West,260,4.0,6.0,99,-99.99,,,-99.99,,2013-04-15 05:32:00,
2013-04-14 22:42:00,46.0,46.0,-100.00,West,263,3.0,5.0,99,-99.99,,,-99.99,,2013-04-15 05:42:00,
2013-04-14 22:52:00,46.0,46.0,-100.00,West,274,3.0,6.0,99,-99.99,,,-99.99,,2013-04-15 05:52:00,
2013-04-14 23:01:00,46.0,46.0,-100.00,West,266,4.0,6.0,99,-99.99,,,-99.99,,2013-04-15 06:01:00,
2013-04-14 23:12:00,46.0,46.0,-100.00,WSW,250,3.0,6.0,99,-99.99,,,-99.99,,2013-04-15 06:12:00,
2013-04-14 23:22:00,46.0,46.0,-100.00,WSW,257,3.0,4.0,99,-99.99,,,-99.99,,2013-04-15 06:22:00,
2013-04-14 23:32:00,46.0,46.0,-100.00,WNW,283,2.0,2.0,99,-99.99,,,-99.99,,2013-04-15 06:32:00,
2013-04-14 23:42:00,46.0,46.0,-100.00,WSW,254,1.0,2.0,99,-99.99,,,-99.99,,2013-04-15 06:42:00,
2013-04-14 23:52:00,46.0,46.0,-100.00,WNW,300,1.0,2.0,99,-99.99,,,-99.99,,2013-04-15 06:52:00,